Madison, MN

7:09 PM CST on December 12, 2019 (GMT -0600)
Madison-Lac Qui Parle County

Weather History for KDXX - August, 2019

Change the Weather History Date:

Sunday, August 25, 2019

  Actual Average (WUND) Record (WUND)
Temperature  
Mean Temperature 64 °F -  
Max Temperature 69 °F - - (-1)
Min Temperature 60 °F - - (-1)
Growing Degree Days 14 (Base 50)    
Moisture  
Dew Point 61 °F    
Average Humidity 84    
Maximum Humidity 94    
Minimum Humidity 77    
Precipitation  
Precipitation 0.01 in - - ()
Sea Level Pressure  
Sea Level Pressure 29.90 in    
Wind  
Wind Speed 10 mph (SE)    
Max Wind Speed 15 mph    
Max Gust Speed 18 mph    
Visibility 10 miles    
Events Rain    
Averages and records for this station are not official NWS values.
T = Trace of Precipitation, MM = Missing Value Source: NWS Daily Summary

Daily Weather History Graph

Daily Weather History Graph

Search for Another Location

Airport or City:

Astronomy

Aug. 25, 2019 Rise Set
Actual Time 6:38 AM CDT 8:14 PM CDT
Civil Twilight 6:07 AM CDT 8:45 PM CDT
Nautical Twilight 5:29 AM CDT 9:22 PM CDT
Astronomical Twilight 4:49 AM CDT 10:03 PM CDT
Moon 1:05 AM CDT (8/25) 4:46 PM CDT (8/25)
Length of Visible Light 14h 38m
Length of Day
13h 36m
Waning Crescent, 29% of the Moon is Illuminated
Aug 25
Waning Crescent
Aug 30
New
Sep 5
First Quarter
Sep 13
Full
Sep 21
Last Quarter

Hourly Weather History & Observations

Time (CDT) Temp. Dew Point Humidity Pressure Visibility Wind Dir Wind Speed Gust Speed Precip Events Conditions
12:38 AM 64.4 °F 57.2 °F 77% 30.02 in 10.0 mi SSE 9.2 mph - N/A   Clear
12:55 AM 62.6 °F 57.2 °F 82% 30.02 in 10.0 mi SSE 9.2 mph - N/A   Clear
1:15 AM 62.6 °F 57.2 °F 82% 30.01 in 10.0 mi SSE 10.4 mph - N/A   Clear
1:16 AM 62.6 °F 57.2 °F 82% 30.01 in 10.0 mi SSE 10.4 mph - N/A   Clear
1:35 AM 62.6 °F 57.2 °F 82% 30.00 in 10.0 mi SSE 10.4 mph - N/A   Clear
1:58 AM 62.6 °F 57.2 °F 82% 29.99 in 10.0 mi SSE 8.1 mph - N/A   Clear
2:17 AM 62.6 °F 57.2 °F 82% 29.98 in 10.0 mi SSE 10.4 mph - N/A   Clear
2:36 AM 62.6 °F 57.2 °F 82% 29.98 in 10.0 mi SSE 8.1 mph - N/A   Clear
2:55 AM 62.6 °F 57.2 °F 82% 29.97 in 10.0 mi SSE 8.1 mph - N/A   Clear
2:56 AM 62.6 °F 57.2 °F 82% 29.97 in 10.0 mi SSE 9.2 mph - N/A   Clear
3:15 AM 60.8 °F 57.2 °F 88% 29.97 in 10.0 mi SSE 6.9 mph - N/A   Clear
3:37 AM 60.8 °F 57.2 °F 88% 29.97 in 10.0 mi SE 6.9 mph - N/A   Scattered Clouds
3:56 AM 60.8 °F 57.2 °F 88% 29.97 in 10.0 mi SE 8.1 mph - N/A   Overcast
4:15 AM 62.6 °F 57.2 °F 82% 29.96 in 10.0 mi SE 9.2 mph - N/A   Overcast
4:16 AM 62.6 °F 57.2 °F 82% 29.96 in 10.0 mi SE 9.2 mph - N/A   Overcast
4:35 AM 62.6 °F 57.2 °F 82% 29.96 in 10.0 mi SE 10.4 mph - N/A   Overcast
4:36 AM 62.6 °F 57.2 °F 82% 29.96 in 10.0 mi SE 10.4 mph - N/A   Overcast
4:59 AM 62.6 °F 57.2 °F 82% 29.95 in 10.0 mi SE 10.4 mph - N/A   Overcast
5:16 AM 62.6 °F 57.2 °F 82% 29.95 in 10.0 mi SE 12.7 mph 18.4 mph N/A   Overcast
5:36 AM 62.6 °F 57.2 °F 82% 29.94 in 10.0 mi SE 11.5 mph 17.3 mph N/A   Overcast
5:55 AM 62.6 °F 57.2 °F 82% 29.94 in 10.0 mi SE 9.2 mph - N/A   Overcast
5:56 AM 62.6 °F 57.2 °F 82% 29.94 in 10.0 mi SE 9.2 mph - N/A   Overcast
6:15 AM 62.6 °F 57.2 °F 82% 29.94 in 10.0 mi SSE 11.5 mph - N/A   Overcast
6:19 AM 62.6 °F 57.2 °F 82% 29.94 in 10.0 mi SE 9.2 mph - N/A   Overcast
6:38 AM 62.6 °F 57.2 °F 82% 29.93 in 10.0 mi SE 12.7 mph - N/A   Overcast
6:55 AM 62.6 °F 59.0 °F 88% 29.93 in 10.0 mi SSE 9.2 mph - N/A   Mostly Cloudy
7:15 AM 64.4 °F 59.0 °F 83% 29.93 in 10.0 mi SSE 10.4 mph - N/A   Overcast
7:16 AM 64.4 °F 59.0 °F 83% 29.93 in 10.0 mi SSE 9.2 mph - N/A   Overcast
7:35 AM 64.4 °F 60.8 °F 88% 29.93 in 10.0 mi SSE 10.4 mph - N/A   Overcast
7:58 AM 64.4 °F 60.8 °F 88% 29.93 in 10.0 mi SE 10.4 mph - N/A   Overcast
8:16 AM 64.4 °F 60.8 °F 88% 29.93 in 10.0 mi SSE 6.9 mph - N/A   Overcast
8:35 AM 64.4 °F 60.8 °F 88% 29.93 in 10.0 mi SSE 9.2 mph - N/A   Overcast
8:36 AM 64.4 °F 60.8 °F 88% 29.93 in 10.0 mi SSE 9.2 mph - N/A   Overcast
8:55 AM 64.4 °F 60.8 °F 88% 29.92 in 10.0 mi SSE 10.4 mph - N/A   Overcast
8:56 AM 64.4 °F 60.8 °F 88% 29.92 in 10.0 mi SSE 10.4 mph - N/A   Overcast
9:15 AM 64.4 °F 60.8 °F 88% 29.92 in 10.0 mi SSE 11.5 mph - N/A   Mostly Cloudy
9:20 AM 66.2 °F 60.8 °F 83% 29.92 in 10.0 mi SE 12.7 mph - N/A   Mostly Cloudy
9:37 AM 64.4 °F 60.8 °F 88% 29.92 in 10.0 mi SE 10.4 mph 17.3 mph N/A   Mostly Cloudy
9:55 AM 64.4 °F 60.8 °F 88% 29.93 in 10.0 mi SSE 10.4 mph - N/A   Overcast
10:15 AM 64.4 °F 60.8 °F 88% 29.93 in 10.0 mi SSE 10.4 mph - N/A   Mostly Cloudy
10:35 AM 64.4 °F 62.6 °F 94% 29.93 in 10.0 mi SE 9.2 mph - N/A   Mostly Cloudy
10:58 AM 64.4 °F 62.6 °F 94% 29.93 in 10.0 mi SE 10.4 mph - N/A   Light Drizzle
11:17 AM 64.4 °F 62.6 °F 94% 29.93 in 7.0 mi SSE 8.1 mph - N/A Rain Rain
11:55 AM 66.2 °F 62.6 °F 88% 29.92 in 10.0 mi SSE 10.4 mph - N/A   Overcast
11:56 AM 66.2 °F 62.6 °F 88% 29.92 in 10.0 mi SSE 11.5 mph 16.1 mph N/A   Overcast
12:15 PM 66.2 °F 62.6 °F 88% 29.92 in 10.0 mi SSE 11.5 mph - N/A   Overcast
12:37 PM 66.2 °F 62.6 °F 88% 29.92 in 10.0 mi SSE 13.8 mph 18.4 mph N/A   Mostly Cloudy
12:56 PM 68.0 °F 64.4 °F 88% 29.90 in 10.0 mi SE 15.0 mph - N/A   Mostly Cloudy
1:15 PM 68.0 °F 62.6 °F 83% 29.89 in 10.0 mi SE 13.8 mph 18.4 mph N/A   Scattered Clouds
1:16 PM 68.0 °F 62.6 °F 83% 29.89 in 10.0 mi SE 12.7 mph 18.4 mph N/A   Scattered Clouds
1:35 PM 68.0 °F 62.6 °F 83% 29.89 in 10.0 mi SE 15.0 mph - N/A   Mostly Cloudy
1:36 PM 68.0 °F 62.6 °F 83% 29.89 in 10.0 mi SE 15.0 mph - N/A   Mostly Cloudy
1:59 PM 68.0 °F 62.6 °F 83% 29.90 in 10.0 mi SE 13.8 mph - N/A Rain Rain
2:16 PM 66.2 °F 64.4 °F 94% 29.90 in 10.0 mi SSE 10.4 mph - N/A Rain Light Rain
2:36 PM 66.2 °F 64.4 °F 94% 29.89 in 10.0 mi SE 11.5 mph 17.3 mph 0.01 in   Overcast
2:55 PM 66.2 °F 64.4 °F 94% 29.89 in 10.0 mi SSE 9.2 mph 16.1 mph 0.01 in   Overcast
2:56 PM 66.2 °F 64.4 °F 94% 29.89 in 10.0 mi SSE 9.2 mph 16.1 mph N/A   Overcast
3:15 PM 66.2 °F 64.4 °F 94% 29.89 in 10.0 mi SE 12.7 mph 16.1 mph N/A   Overcast
3:19 PM 66.2 °F 64.4 °F 94% 29.88 in 10.0 mi SE 11.5 mph - N/A   Overcast
3:38 PM 68.0 °F 64.4 °F 88% 29.88 in 10.0 mi SE 11.5 mph - N/A   Overcast
3:55 PM 69.8 °F 64.4 °F 83% 29.87 in 10.0 mi SE 12.7 mph 18.4 mph N/A   Scattered Clouds
4:15 PM 69.8 °F 64.4 °F 83% 29.86 in 10.0 mi SE 12.7 mph 18.4 mph N/A   Mostly Cloudy
4:35 PM 69.8 °F 64.4 °F 83% 29.86 in 10.0 mi SE 10.4 mph 16.1 mph N/A   Overcast
4:59 PM 69.8 °F 64.4 °F 83% 29.85 in 10.0 mi SE 11.5 mph - N/A   Overcast
5:16 PM 69.8 °F 64.4 °F 83% 29.85 in 10.0 mi SE 12.7 mph 17.3 mph N/A   Overcast
5:35 PM 69.8 °F 62.6 °F 78% 29.84 in 10.0 mi SE 11.5 mph - N/A   Overcast
5:55 PM 69.8 °F 62.6 °F 78% 29.85 in 10.0 mi SE 11.5 mph - N/A   Overcast
5:56 PM 69.8 °F 62.6 °F 78% 29.85 in 10.0 mi SE 11.5 mph - N/A   Overcast
6:15 PM 69.8 °F 64.4 °F 83% 29.85 in 10.0 mi SSE 9.2 mph 16.1 mph N/A   Overcast
6:20 PM 69.8 °F 62.6 °F 78% 29.85 in 10.0 mi SSE 11.5 mph 16.1 mph N/A   Overcast
6:37 PM 69.8 °F 64.4 °F 83% 29.84 in 7.0 mi SE 10.4 mph - N/A   Overcast
6:55 PM 68.0 °F 64.4 °F 88% 29.84 in 4.0 mi SSE 10.4 mph - N/A   Overcast
7:16 PM 68.0 °F 64.4 °F 88% 29.83 in 10.0 mi SSE 9.2 mph - N/A   Overcast
7:35 PM 69.8 °F 64.4 °F 83% 29.83 in 10.0 mi SSE 11.5 mph 16.1 mph N/A   Overcast
7:36 PM 69.8 °F 64.4 °F 83% 29.83 in 10.0 mi SSE 10.4 mph 16.1 mph N/A   Overcast
7:58 PM 69.8 °F 64.4 °F 83% 29.82 in 10.0 mi SSE 10.4 mph - N/A   Overcast
8:17 PM 69.8 °F 62.6 °F 78% 29.81 in 10.0 mi SSE 8.1 mph - N/A   Overcast
8:36 PM 69.8 °F 62.6 °F 78% 29.82 in 10.0 mi SSE 6.9 mph - N/A   Overcast
8:55 PM 69.8 °F 62.6 °F 78% 29.82 in 10.0 mi SSE 6.9 mph - N/A   Overcast
8:56 PM 69.8 °F 62.6 °F 78% 29.82 in 10.0 mi SSE 6.9 mph - N/A   Overcast
9:15 PM 69.8 °F 62.6 °F 78% 29.82 in 10.0 mi SE 9.2 mph - N/A   Overcast
9:37 PM 69.8 °F 62.6 °F 78% 29.82 in 10.0 mi SE 9.2 mph - N/A   Overcast
9:56 PM 68.0 °F 62.6 °F 83% 29.82 in 10.0 mi SE 10.4 mph - N/A   Overcast
10:15 PM 68.0 °F 62.6 °F 83% 29.82 in 10.0 mi SSE 9.2 mph - N/A   Overcast
10:16 PM 68.0 °F 62.6 °F 83% 29.82 in 10.0 mi SSE 8.1 mph - N/A   Overcast
10:35 PM 69.8 °F 62.6 °F 78% 29.83 in 10.0 mi SSE 5.8 mph - N/A   Overcast
10:36 PM 69.8 °F 62.6 °F 78% 29.83 in 10.0 mi SSE 5.8 mph - N/A   Overcast
10:58 PM 68.0 °F 62.6 °F 83% 29.82 in 10.0 mi SE 6.9 mph - N/A   Overcast
11:16 PM 68.0 °F 62.6 °F 83% 29.82 in 10.0 mi SSE 5.8 mph - N/A   Overcast
11:35 PM 68.0 °F 62.6 °F 83% 29.82 in 10.0 mi SE 5.8 mph - N/A   Overcast
11:36 PM 68.0 °F 62.6 °F 83% 29.82 in 10.0 mi SE 6.9 mph - N/A   Overcast
11:55 PM 68.0 °F 62.6 °F 83% 29.82 in 10.0 mi SSE 5.8 mph - N/A   Overcast